This is the latest recevied weather packets stored in our database for station/object AB4KN. If no packets are shown the sender has not sent any weather packets the latest 10 day(s).
| Time | Temp. | Humidity | Pressure | Rain* | Wind** | Luminosity | Snow |
|---|---|---|---|---|---|---|---|
| 1777741458 | 19.44° C | 56% | 1017.9 hPa | 0 mm | - | 742 W/m² | - |
| 1777741155 | 19.44° C | 57% | 1018 hPa | 0 mm | - | 769 W/m² | - |
| 1777740852 | 18.89° C | 55% | 1018.1 hPa | 0 mm | - | 769 W/m² | - |
| 1777740549 | 18.89° C | 58% | 1018 hPa | 0 mm | - | 776 W/m² | - |
| 1777740245 | 18.89° C | 59% | 1018.1 hPa | 0 mm | - | 765 W/m² | - |
| 1777739942 | 18.33° C | 59% | 1018.2 hPa | 0 mm | - | 776 W/m² | - |
| 1777739638 | 17.78° C | 61% | 1018.1 hPa | 0 mm | - | 781 W/m² | - |
| 1777739336 | 17.78° C | 59% | 1018.2 hPa | 0 mm | - | 795 W/m² | - |
| 1777739032 | 17.22° C | 60% | 1018.2 hPa | 0 mm | - | 812 W/m² | - |
| 1777738729 | 17.22° C | 62% | 1018 hPa | 0 mm | - | 817 W/m² | - |
| 1777738425 | 16.67° C | 65% | 1018.2 hPa | 0 mm | - | 807 W/m² | - |
| 1777738123 | 16.67° C | 67% | 1018.2 hPa | 0 mm | - | 396 W/m² | - |
| 1777737822 | 16.67° C | 70% | 1018.3 hPa | 0 mm | - | 678 W/m² | - |
| 1777737520 | 16.11° C | 67% | 1018.1 hPa | 0 mm | - | 271 W/m² | - |
| 1777737218 | 16.11° C | 71% | 1018.3 hPa | 0 mm | - | 225 W/m² | - |
| 1777736914 | 15.56° C | 70% | 1018.2 hPa | 0 mm | - | 185 W/m² | - |
| 1777736311 | 15.56° C | 71% | 1018.3 hPa | 0 mm | - | 178 W/m² | - |
| 1777736007 | 15.56° C | 73% | 1018.3 hPa | 0 mm | - | 215 W/m² | - |
| 1777735705 | 15° C | 73% | 1018.4 hPa | 0 mm | - | 367 W/m² | - |
| 1777735403 | 15° C | 73% | 1018.5 hPa | 0 mm | - | 162 W/m² | - |
| 1777735100 | 15° C | 75% | 1018.3 hPa | 0 mm | - | 146 W/m² | - |
| 1777734797 | 14.44° C | 75% | 1018.1 hPa | 0 mm | - | 133 W/m² | - |
| 1777734494 | 14.44° C | 73% | 1018.2 hPa | 0 mm | - | 150 W/m² | - |
| 1777734191 | 14.44° C | 75% | 1018.2 hPa | 0 mm | - | 158 W/m² | - |
| 1777733887 | 14.44° C | 76% | 1018.2 hPa | 0 mm | - | 150 W/m² | - |
* Rain latest hour (hover to see other rain measurements)
** Current wind speed in m/s (hover to see current wind gust speed)